Location: East Guldeford
(50.9500°N, 0.7500°E)
Time: 07:55:42
(UTC+00:00)

Cosmos 1538 Rocket - Pass Details

Date: 12 May 2021
Orbit: 752 x 792 km, 74.0° (Epoch: 16 June)

Event Time Altitude Azimuth Distance (km) Brightness Sun altitude
Rises 21:12:00 0° 333° (NNW) 3,300 9.1 -12.2°
Reaches altitude 10° 21:14:26 10° 330° (NNW) 2,364 8.0 -12.4°
Maximum altitude 21:19:43 62° 251° (WSW) 886 4.4 -12.9°
Enters shadow 21:24:06 15° 174° (S) 2,014 5.7 -13.3°
